map of LAL home
LAL - Airport
Location
City:  Lakeland, Florida, United States
Name:Lakeland Linder Regional
ICAO:KLAL
IATA:LAL
FAA LID:LAL

Details
Type:Airport (Part 139 Class I)
Use:Public/Civil
Latitude:2759'20"N (27.988917)
Longitude:8201'07"W (-82.018555)
Datum:WGS 1984
Elevation:142 ft (43 m)
Variation:5.87W (WMM2015 magnetic declination)
-0.10 annual change
Runways:3
Longest:8499 × 150 ft (2590 × 45.5 m), paved

Time
Time Zone:UTC-5 (DST-4)
Local Time:

Weather
METAR:KLAL 210355Z AUTO 06004KT 10SM CLR 22/20 A3013 RMK AO2
TAF:KLAL 210521Z 2106/2206 06005KT P6SM SCT200
FM211800 08011G16KT P6SM SCT035
FM220100 07007KT P6SM SCT250
AMD NOT SKED TIL 211100

Related Locations
Nearby:
Farthest:USL: 11488 mi / 18489 km
Useless Loop, WA, AU

Find:

   beyond  
but within

Other Information
Maps:
NOTAMs:
Links:
Sources:

  
flag of United States
flag of Florida
  

Airport Diagram

Airport diagram for LAL

Airport diagram PDF

Sectional Chart

Flight Planning
at skyvector.com

Satellite Image

Google Maps Satellite view

 

Copyright © 2004-2017 Karl L. Swartz. All rights reserved.
The Great Circle Mapper name and logo are trademarks of the Great Circle Mapper.
All other trademarks mentioned herein belong to their respective owners.
Please see credits for attibutions and further copyright information.

  Follow gcmap on Facebook Follow gcmap on Twitter Follow gcmap on Google+ GCmap on LinkedIn

hCard Microformat

Geo Microformat